Location: Newark
(50.8547°N, 2.7256°E)
Time: 11:16:04
(UTC+00:00)

Envisat - Pass Details

Date: 25 January 2020
Orbit: 764 x 766 km, 98.1° (Epoch: 20 February)

Event Time Altitude Azimuth Distance (km) Brightness Sun altitude
Rises 19:10:12 0° 219° (SW) 3,224 6.8 -25.4°
Reaches altitude 10° 19:13:46 10° 246° (WSW) 2,305 6.3 -25.9°
Maximum altitude 19:16:13 13° 275° (W) 2,073 6.2 -26.3°
Drops below altitude 10° 19:18:41 10° 304° (NW) 2,313 6.2 -26.7°
Sets 19:22:18 0° 331° (NNW) 3,245 6.7 -27.3°
